Location: College Park
(38.9810°N, 76.9370°W)
Time: 05:13:25

Hubble Space Telescope - Pass Details

Date: 06 January 2018
Orbit: 537 x 541 km, 28.5° (Epoch: 20 March)

Event Time Altitude Azimuth Distance (km) Brightness Sun altitude
Exits shadow 04:47:36 15° 150° (SSE) 1,515 3.4 -30.2°
Drops below altitude 10° 04:49:01 10° 131° (SE) 1,785 4.0 -30.0°
Sets 04:51:57 0° 110° (ESE) 2,676 5.5 -29.4°
